TimeCST,TemperatureF,Dew PointF,Humidity,Sea Level PressureIn,VisibilityMPH,Wind Direction,Wind SpeedMPH,Gust SpeedMPH,PrecipitationIn,Events,Conditions,WindDirDegrees,DateUTC
12:39 AM,44.6,44.6,100,29.89,0.2,Calm,Calm,-,N/A,Fog,Fog,0,2012-12-08 06:39:00
12:46 AM,42.8,42.8,100,29.90,0.2,Calm,Calm,-,N/A,Fog,Fog,0,2012-12-08 06:46:00
12:53 AM,46.0,44.1,93,29.89,0.2,NW,3.5,-,N/A,Fog,Fog,310,2012-12-08 06:53:00
1:02 AM,48.2,46.4,93,29.90,1.0,NNW,3.5,-,N/A,,Overcast,340,2012-12-08 07:02:00
1:06 AM,48.2,48.2,100,29.90,2.0,North,3.5,-,N/A,,Overcast,350,2012-12-08 07:06:00
1:14 AM,50.0,48.2,94,29.90,3.0,North,4.6,-,N/A,,Overcast,350,2012-12-08 07:14:00
1:53 AM,51.1,48.9,92,29.88,5.0,North,6.9,-,N/A,,Overcast,360,2012-12-08 07:53:00
2:53 AM,51.1,48.9,92,29.89,6.0,North,5.8,-,N/A,,Overcast,10,2012-12-08 08:53:00
3:04 AM,51.8,48.2,88,29.90,5.0,North,3.5,-,N/A,,Overcast,350,2012-12-08 09:04:00
3:53 AM,52.0,48.9,89,29.89,5.0,North,5.8,-,N/A,,Overcast,10,2012-12-08 09:53:00
4:53 AM,51.8,48.2,88,29.91,6.0,North,4.6,-,N/A,,Overcast,10,2012-12-08 10:53:00
5:16 AM,51.8,48.2,88,29.91,7.0,North,5.8,-,N/A,,Overcast,360,2012-12-08 11:16:00
5:53 AM,52.0,48.0,86,29.91,8.0,NNE,5.8,-,N/A,,Overcast,20,2012-12-08 11:53:00
6:06 AM,51.8,48.2,88,29.92,8.0,NNE,4.6,-,N/A,,Overcast,30,2012-12-08 12:06:00
6:53 AM,52.0,48.0,86,29.92,9.0,Calm,Calm,-,N/A,,Overcast,0,2012-12-08 12:53:00
7:53 AM,52.0,48.0,86,29.93,6.0,North,3.5,-,N/A,,Overcast,10,2012-12-08 13:53:00
8:53 AM,53.1,48.0,83,29.94,5.0,Calm,Calm,-,N/A,,Haze,0,2012-12-08 14:53:00
9:53 AM,53.1,48.0,83,29.94,6.0,Calm,Calm,-,N/A,,Haze,0,2012-12-08 15:53:00
10:53 AM,54.0,48.0,80,29.93,7.0,East,3.5,-,N/A,,Overcast,100,2012-12-08 16:53:00
11:53 AM,57.9,46.9,67,29.89,9.0,Variable,3.5,-,N/A,,Mostly Cloudy,0,2012-12-08 17:53:00
12:09 PM,57.2,46.4,67,29.89,9.0,Calm,Calm,-,N/A,,Partly Cloudy,0,2012-12-08 18:09:00
12:53 PM,60.1,46.9,62,29.86,10.0,Variable,3.5,-,N/A,,Partly Cloudy,0,2012-12-08 18:53:00
1:53 PM,61.0,46.9,60,29.83,10.0,West,3.5,-,N/A,,Scattered Clouds,270,2012-12-08 19:53:00
2:53 PM,63.0,46.9,56,29.81,10.0,SW,4.6,-,N/A,,Overcast,220,2012-12-08 20:53:00
3:53 PM,63.0,46.9,56,29.80,10.0,SW,4.6,-,N/A,,Overcast,220,2012-12-08 21:53:00
4:53 PM,63.0,46.9,56,29.80,10.0,Calm,Calm,-,N/A,,Overcast,0,2012-12-08 22:53:00
5:53 PM,62.1,48.0,60,29.81,10.0,Calm,Calm,-,N/A,,Overcast,0,2012-12-08 23:53:00
6:36 PM,60.8,48.2,63,29.82,10.0,Calm,Calm,-,N/A,,Overcast,0,2012-12-09 00:36:00
6:53 PM,60.1,48.0,64,29.81,10.0,Calm,Calm,-,N/A,,Overcast,0,2012-12-09 00:53:00
7:33 PM,60.8,48.2,63,29.82,10.0,Calm,Calm,-,N/A,,Overcast,0,2012-12-09 01:33:00
7:53 PM,60.1,48.0,64,29.81,10.0,NE,4.6,-,N/A,,Overcast,40,2012-12-09 01:53:00
8:53 PM,59.0,48.0,67,29.81,10.0,Calm,Calm,-,N/A,,Overcast,0,2012-12-09 02:53:00
9:53 PM,55.9,48.0,75,29.81,10.0,ESE,3.5,-,N/A,,Overcast,120,2012-12-09 03:53:00
10:53 PM,53.1,46.9,80,29.82,10.0,Calm,Calm,-,N/A,,Mostly Cloudy,0,2012-12-09 04:53:00
11:53 PM,50.0,46.0,86,29.80,10.0,Calm,Calm,-,N/A,,Mostly Cloudy,0,2012-12-09 05:53:00